EN

Hourly Weather Ladyga

Today, 4 August, Wednesday

Time Temperature Precipitation Wind Pressure Humidity
00:00 +14°C° 0 mm 1 mps 749 mmHg 88%
01:00 +14°C° 0 mm 1 mps 749 mmHg 88%
02:00 +14°C° 0 mm 1 mps 749 mmHg 88%
03:00 +14°C° 0.1 mm 1 mps 749 mmHg 88%
04:00 +14°C° 0.1 mm 2 mps 749 mmHg 89%
05:00 +14°C° 0.1 mm 2 mps 749 mmHg 89%
06:00 +15°C° 0 mm 2 mps 749 mmHg 86%
07:00 +16°C° 0 mm 2 mps 749 mmHg 82%
08:00 +17°C° 0 mm 2 mps 749 mmHg 78%
09:00 +19°C° 0.2 mm 2 mps 749 mmHg 73%
10:00 +20°C° 0.2 mm 2 mps 749 mmHg 68%
11:00 +21°C° 0.2 mm 2 mps 749 mmHg 63%
12:00 +21°C° 0.5 mm 2 mps 749 mmHg 64%
13:00 +21°C° 0.5 mm 2 mps 749 mmHg 65%
14:00 +21°C° 0.5 mm 2 mps 749 mmHg 66%
15:00 +20°C° 1.3 mm 2 mps 749 mmHg 75%
16:00 +18°C° 1.3 mm 2 mps 749 mmHg 84%
17:00 +17°C° 1.3 mm 2 mps 749 mmHg 92%
18:00 +16°C° 1 mm 2 mps 748 mmHg 93%
19:00 +16°C° 1 mm 2 mps 748 mmHg 95%
20:00 +15°C° 1 mm 2 mps 748 mmHg 96%
21:00 +15°C° 0.5 mm 2 mps 748 mmHg 97%
22:00 +15°C° 0.5 mm 1 mps 748 mmHg 97%
23:00 +15°C° 0.5 mm 1 mps 748 mmHg 98%

Tomorrow, 5 August, Thursday

Time Temperature Precipitation Wind Pressure Humidity
00:00 +15°C° 0.3 mm 1 mps 748 mmHg 98%
01:00 +15°C° 0.3 mm 1 mps 748 mmHg 98%
02:00 +15°C° 0.3 mm 2 mps 748 mmHg 98%
03:00 +15°C° 0 mm 2 mps 748 mmHg 97%
04:00 +14°C° 0 mm 2 mps 748 mmHg 97%
05:00 +14°C° 0 mm 2 mps 747 mmHg 97%
06:00 +15°C° 0 mm 2 mps 747 mmHg 94%
07:00 +16°C° 0 mm 2 mps 748 mmHg 91%
08:00 +17°C° 0 mm 3 mps 748 mmHg 88%
09:00 +18°C° 0 mm 3 mps 748 mmHg 83%
10:00 +18°C° 0 mm 3 mps 748 mmHg 78%
11:00 +19°C° 0 mm 3 mps 747 mmHg 74%
12:00 +20°C° 0 mm 3 mps 747 mmHg 72%
13:00 +20°C° 0 mm 3 mps 747 mmHg 70%
14:00 +20°C° 0 mm 3 mps 747 mmHg 69%
15:00 +20°C° 0 mm 3 mps 747 mmHg 70%
16:00 +20°C° 0 mm 3 mps 747 mmHg 70%
17:00 +20°C° 0 mm 3 mps 747 mmHg 71%
18:00 +19°C° 0 mm 3 mps 746 mmHg 74%
19:00 +18°C° 0 mm 3 mps 746 mmHg 77%
20:00 +17°C° 0 mm 3 mps 746 mmHg 80%
21:00 +17°C° 0 mm 4 mps 746 mmHg 80%
22:00 +15°C° 0 mm 4 mps 746 mmHg 79%
23:00 +15°C° 0 mm 5 mps 745 mmHg 79%

Day after tomorrow, 6 August, Friday

Time Temperature Precipitation Wind Pressure Humidity
00:00 +14°C° 0 mm 5 mps 745 mmHg 81%
01:00 +14°C° 0 mm 5 mps 745 mmHg 82%
02:00 +13°C° 0 mm 5 mps 744 mmHg 84%
03:00 +13°C° 0 mm 5 mps 744 mmHg 86%
04:00 +13°C° 0 mm 5 mps 743 mmHg 88%
05:00 +12°C° 0 mm 5 mps 742 mmHg 90%
06:00 +13°C° 1.2 mm 6 mps 742 mmHg 92%
07:00 +13°C° 1.2 mm 6 mps 742 mmHg 94%
08:00 +13°C° 1.2 mm 6 mps 741 mmHg 97%
09:00 +14°C° 1.6 mm 6 mps 741 mmHg 96%
10:00 +14°C° 1.6 mm 6 mps 741 mmHg 95%
11:00 +15°C° 1.6 mm 6 mps 741 mmHg 95%
12:00 +14°C° 0.2 mm 6 mps 741 mmHg 95%
13:00 +14°C° 0.2 mm 5 mps 740 mmHg 95%
14:00 +14°C° 0.2 mm 5 mps 740 mmHg 95%
15:00 +14°C° 0 mm 4 mps 740 mmHg 95%
16:00 +14°C° 0 mm 4 mps 740 mmHg 95%
17:00 +16°C° 0 mm 3 mps 740 mmHg 95%
18:00 +14°C° 0 mm 3 mps 740 mmHg 96%
19:00 +14°C° 0 mm 3 mps 740 mmHg 96%
20:00 +14°C° 0 mm 3 mps 740 mmHg 97%
21:00 +14°C° 0 mm 3 mps 740 mmHg 97%
22:00 +14°C° 0 mm 3 mps 740 mmHg 97%
23:00 +14°C° 0 mm 4 mps 741 mmHg 97%

7 August, Saturday

Time Temperature Precipitation Wind Pressure Humidity
00:00 +14°C° 0 mm 4 mps 741 mmHg 96%
01:00 +14°C° 0 mm 4 mps 741 mmHg 96%
02:00 +14°C° 0 mm 4 mps 741 mmHg 95%
03:00 +13°C° 0 mm 4 mps 742 mmHg 95%
04:00 +13°C° 0 mm 3 mps 742 mmHg 95%
05:00 +13°C° 0 mm 3 mps 742 mmHg 95%
06:00 +14°C° 0 mm 4 mps 743 mmHg 92%
07:00 +15°C° 0 mm 4 mps 743 mmHg 88%
08:00 +17°C° 0 mm 4 mps 743 mmHg 84%
09:00 +18°C° 0 mm 4 mps 744 mmHg 78%
10:00 +19°C° 0 mm 4 mps 744 mmHg 73%
11:00 +20°C° 0 mm 4 mps 744 mmHg 67%
12:00 +21°C° 0.1 mm 5 mps 744 mmHg 67%
13:00 +21°C° 0.1 mm 5 mps 745 mmHg 66%
14:00 +21°C° 0.1 mm 5 mps 745 mmHg 66%
15:00 +21°C° 0.1 mm 5 mps 745 mmHg 67%
16:00 +22°C° 0.1 mm 5 mps 745 mmHg 68%
17:00 +22°C° 0.1 mm 4 mps 745 mmHg 68%
18:00 +20°C° 0 mm 4 mps 746 mmHg 73%
19:00 +19°C° 0 mm 3 mps 746 mmHg 78%
20:00 +18°C° 0 mm 3 mps 746 mmHg 83%
21:00 +17°C° 0 mm 3 mps 747 mmHg 84%
22:00 +16°C° 0 mm 3 mps 747 mmHg 86%
23:00 +14°C° 0 mm 3 mps 747 mmHg 87%

8 August, Sunday

Time Temperature Precipitation Wind Pressure Humidity
00:00 +14°C° 0 mm 3 mps 747 mmHg 87%
01:00 +14°C° 0 mm 3 mps 747 mmHg 87%
02:00 +14°C° 0 mm 3 mps 748 mmHg 87%
03:00 +14°C° 0 mm 3 mps 748 mmHg 88%
04:00 +13°C° 0 mm 3 mps 748 mmHg 88%
05:00 +13°C° 0 mm 3 mps 748 mmHg 89%
06:00 +16°C° 0 mm 3 mps 748 mmHg 85%
07:00 +17°C° 0 mm 4 mps 748 mmHg 81%
08:00 +19°C° 0 mm 4 mps 748 mmHg 78%
09:00 +20°C° 0 mm 4 mps 748 mmHg 74%
10:00 +22°C° 0 mm 5 mps 748 mmHg 70%
11:00 +23°C° 0 mm 5 mps 748 mmHg 65%
12:00 +25°C° 0 mm 5 mps 748 mmHg 65%
13:00 +26°C° 0 mm 6 mps 748 mmHg 64%
14:00 +27°C° 0 mm 6 mps 748 mmHg 63%
15:00 +26°C° 0.4 mm 4 mps 748 mmHg 69%
16:00 +25°C° 0.4 mm 3 mps 748 mmHg 76%
17:00 +24°C° 0.4 mm 2 mps 748 mmHg 82%
18:00 +23°C° 0.6 mm 2 mps 749 mmHg 85%
19:00 +21°C° 0.6 mm 2 mps 749 mmHg 88%
20:00 +20°C° 0.6 mm 2 mps 749 mmHg 91%
21:00 +19°C° 0.1 mm 2 mps 749 mmHg 92%
22:00 +19°C° 0.1 mm 2 mps 750 mmHg 92%
23:00 +18°C° 0.1 mm 2 mps 750 mmHg 93%

9 August, Monday

Time Temperature Precipitation Wind Pressure Humidity
00:00 +18°C° 0 mm 2 mps 750 mmHg 93%
01:00 +19°C° 0 mm 1 mps 750 mmHg 94%
02:00 +18°C° 0 mm 1 mps 751 mmHg 94%
03:00 +18°C° 0 mm 1 mps 751 mmHg 94%
04:00 +18°C° 0 mm 1 mps 751 mmHg 94%
05:00 +17°C° 0 mm 2 mps 751 mmHg 94%
06:00 +19°C° 0 mm 1 mps 751 mmHg 91%
07:00 +20°C° 0 mm 1 mps 751 mmHg 88%
08:00 +21°C° 0 mm 1 mps 752 mmHg 85%
09:00 +22°C° 0.1 mm 1 mps 752 mmHg 78%
10:00 +24°C° 0.1 mm 1 mps 752 mmHg 71%
11:00 +25°C° 0.1 mm 1 mps 752 mmHg 64%
12:00 +26°C° 0 mm 2 mps 752 mmHg 60%
13:00 +26°C° 0 mm 2 mps 752 mmHg 56%
14:00 +27°C° 0 mm 2 mps 752 mmHg 52%
15:00 +27°C° 0 mm 2 mps 752 mmHg 54%
16:00 +26°C° 0 mm 2 mps 752 mmHg 57%
17:00 +26°C° 0 mm 2 mps 752 mmHg 60%
18:00 +24°C° 0 mm 2 mps 752 mmHg 64%
19:00 +23°C° 0 mm 1 mps 752 mmHg 68%
20:00 +21°C° 0 mm 1 mps 752 mmHg 71%
21:00 +21°C° 0 mm 1 mps 752 mmHg 73%
22:00 +20°C° 0 mm 1 mps 752 mmHg 74%
23:00 +17°C° 0 mm 0 mps 752 mmHg 76%
Show more